NIEUW!!! Volg onze weer- en natuurfoto's op Instagram @ weerstationmaaseik.be

WS Maaseik 1 Meer informatie WS Maaseik 1


WS Maaseik 2 Meer informatie WS Maaseik 2


Regen radar Meer informatie rain snow radar


Bezoek onze andere website:

Vorige versie
weerstation Maaseik


Bezoek ook eens deze sites:

Weerstation Geleen



Het weer levert geen direct gevaar op.    Er zijn geen waarschuwingen afgegeven.

15 daagse weersverwachting Aalst (BE)

  • Overzicht
  • Per uur
  • 15 dagen
  • Extra
  • Vergelijk
  • Kaarten
  • Dagkaart
  • Meer »
  • Info
  • Statistieken
  • Directe link
    Temp 6h Neerslag Wind  
 07:40     18:15    Daglengte: 10:35 Vandaag
07:00
0.6 mm
4
13:00
12°
1.5 mm
9
19:00
10°
6.1 mm
10
 07:38     18:17    Daglengte: 10:39 Morgen
01:00
10°
2.3 mm
8
07:00
 
6
13:00
 
7
19:00
3.7 mm
6
 07:35     18:19    Daglengte: 10:44 Woensdag 26 Feb
01:00
3.5 mm
8
07:00
 
5
13:00
3.1 mm
7
19:00
13.9 mm
6
 07:33     18:20    Daglengte: 10:47 Donderdag 27 Feb
01:00
11.6 mm
5
Locatie info
Region: Flandern
Latitude: 50.9362°N
Longitude: 4.0427°E
12 masl
Postcode: 9300
Temp/Neerslag /Baro Onweer/DauwpuntSneeuw
    Temp Baro 1h Neerslag Dauwpunt Wind UV BewolkingSneeuw  
 07:40     18:15    Daglengte: 10:35 Vandaag
06:00
Voelt als: 3.6°
1022.1 hPa
47%
2.9°
2
Windvlaag: 2.7 m/s
91%
07:00
Voelt als: 2.6°
1020.9 hPa 0.6 mm
82%
2.4°
4
Windvlaag: 3 m/s
91%
08:00
Voelt als: 2.1°
1019.3 hPa 0.6 mm
82%
2.6°
5
Windvlaag: 3.9 m/s
91%
09:00
Voelt als: 2.1°
1017.6 hPa 0.9 mm
82%
3.3°
6
Windvlaag: 5.5 m/s
91%
10:00
Voelt als: 3.6°
1016.0 hPa
81%
5.4°
7
Windvlaag: 5.9 m/s
91%
11:00
Voelt als: 5.4°
1014.5 hPa
72%
7.8°
8
Windvlaag: 6.4 m/s
91%
12:00
11°
1013.2 hPa
20%
9.0°
8
Windvlaag: 6.5 m/s
91%
13:00
12°
1011.9 hPa
76%
9.5°
9
Windvlaag: 6.5 m/s
90%
14:00
12°
1010.8 hPa
75%
9.3°
10
Windvlaag: 6.3 m/s
89%
15:00
12°
1009.5 hPa 0.5 mm
73%
8.7°
10
Windvlaag: 6.1 m/s
90%
16:00
12°
1008.6 hPa 0.6 mm
44%
7.8°
10
Windvlaag: 6 m/s
91%
17:00
11°
1007.8 hPa 1.2 mm
82%
7.5°
10
Windvlaag: 5.8 m/s
90%
18:00
10°
1007.4 hPa 1.8 mm
82%
8.2°
10
Windvlaag: 5.5 m/s
91%
19:00
10°
1007.0 hPa 2.0 mm
82%
8.2°
10
Windvlaag: 5.5 m/s
91%
20:00
10°
1006.4 hPa 1.2 mm
82%
8.2°
10
Windvlaag: 5.5 m/s
91%
21:00
10°
1005.8 hPa
71%
8.3°
10
Windvlaag: 5.2 m/s
91%
22:00
10°
1005.5 hPa
33%
8.3°
9
Windvlaag: 4.5 m/s
91%
23:00
10°
1005.1 hPa
77%
8.2°
9
Windvlaag: 4.8 m/s
90%
 07:38     18:17    Daglengte: 10:39 Morgen
00:00
10°
1005.2 hPa 1.1 mm
82%
7.9°
8
Windvlaag: 4.4 m/s
89%
01:00
10°
Voelt als: 6.5°
1005.2 hPa
77%
7.0°
8
Windvlaag: 4.2 m/s
89%
02:00
Voelt als: 5.9°
1005.0 hPa
38%
6.3°
7
Windvlaag: 3.3 m/s
90%
03:00
Voelt als: 4.9°
1004.7 hPa
81%
5.3°
7
Windvlaag: 2.5 m/s
70%
04:00
Voelt als: 4.0°
1004.2 hPa
82%
4.2°
6
Windvlaag: 2.3 m/s
19%
05:00
Voelt als: 3.1°
1004.0 hPa
76%
2.9°
6
Windvlaag: 2.9 m/s
46%
06:00
Voelt als: 2.7°
1003.7 hPa
28%
2.4°
6
Windvlaag: 4.3 m/s
20%
07:00
Voelt als: 2.4°
1003.8 hPa
58%
2.3°
6
Windvlaag: 3.8 m/s
25%
08:00
Voelt als: 2.0°
1003.6 hPa
25%
1.7°
7
Windvlaag: 3.6 m/s
14%
09:00
Voelt als: 1.8°
1003.7 hPa
14%
1.1°
6
Windvlaag: 2.6 m/s
1%
10:00
Voelt als: 2.8°
1003.5 hPa
14%
1.3°
7
Windvlaag: 2.8 m/s
1%
11:00
Voelt als: 3.6°
1003.1 hPa
14%
1.1°
8
Windvlaag: 3 m/s
8%
12:00
Voelt als: 4.4°
1002.8 hPa
14%
0.5°
8
Windvlaag: 3.3 m/s
11%
13:00
Voelt als: 5.3°
1002.3 hPa
18%
0.4°
7
Windvlaag: 3.3 m/s
16%
14:00
Voelt als: 5.5°
1001.4 hPa
32%
-0.1°
7
Windvlaag: 3.1 m/s
45%
15:00
Voelt als: 5.1°
1000.6 hPa 1.3 mm
77%
1.5°
7
Windvlaag: 2.9 m/s
68%
16:00
Voelt als: 3.5°
1000.0 hPa 1.3 mm
82%
3.3°
7
Windvlaag: 3.5 m/s
76%
17:00
Voelt als: 2.9°
999.2 hPa 1.1 mm
81%
3.2°
7
Windvlaag: 3.5 m/s
53%
18:00
Voelt als: 2.2°
998.5 hPa
79%
3.1°
6
Windvlaag: 3.4 m/s
38%
19:00
Voelt als: 1.9°
998.0 hPa
19%
3.0°
6
Windvlaag: 3.9 m/s
63%
20:00
Voelt als: 1.2°
997.4 hPa
14%
2.6°
7
Windvlaag: 3.8 m/s
88%
21:00
Voelt als: 1.1°
996.6 hPa
81%
3.0°
6
Windvlaag: 3.2 m/s
87%
22:00
Voelt als: -0.2°
995.6 hPa 2.0 mm
100%
2.7°
8
Windvlaag: 4.1 m/s
93%
23:00
Voelt als: -0.2°
995.3 hPa
94%
2.6°
8
Windvlaag: 2.1 m/s
84%
 07:35     18:19    Daglengte: 10:44 Woensdag 26 Feb
00:00
Voelt als: -1.3°
995.2 hPa 1.6 mm
82%
1.1°
8
Windvlaag: 1.8 m/s
39%
01:00
Voelt als: -1.5°
995.4 hPa
84%
0.2°
8
Windvlaag: 3.1 m/s
32%
02:00
Voelt als: -2.4°
995.4 hPa
43%
-0.5°
7
Windvlaag: 3 m/s
5%
03:00
Voelt als: -2.7°
995.4 hPa
50%
-0.7°
7
Windvlaag: 3 m/s
22%
04:00
Voelt als: -2.9°
995.1 hPa
47%
-0.6°
7
Windvlaag: 3.5 m/s
38%
05:00
Voelt als: -3.4°
995.1 hPa
45%
-0.6°
7
Windvlaag: 4.4 m/s
56%
06:00
Voelt als: -3.2°
995.4 hPa
41%
-0.5°
6
Windvlaag: 3.7 m/s
68%1 cm
07:00
Voelt als: -3.1°
995.8 hPa
70%
-0.6°
5
Windvlaag: 3.1 m/s
69%3 cm
08:00
Voelt als: -3.4°
996.5 hPa
39%
-0.7°
6
Windvlaag: 2.4 m/s
68%4 cm
09:00
Voelt als: -2.4°
997.3 hPa
99%
-0.6°
6
Windvlaag: 3 m/s
61%5 cm
10:00
Voelt als: -1.8°
998.1 hPa
100%
-0.5°
7
Windvlaag: 3.1 m/s
63%4 cm
11:00
Voelt als: -1.0°
998.6 hPa 3.1 mm
99%
-0.4°
8
Windvlaag: 2.6 m/s
62%4 cm
12:00
Voelt als: 0.1°
999.3 hPa
95%
0.5°
8
Windvlaag: 1.5 m/s
78%3 cm
13:00
Voelt als: 0.9°
999.9 hPa
97%
0.9°
7
Windvlaag: 1.3 m/s
63%3 cm
14:00
Voelt als: 1.2°
1000.2 hPa 2.4 mm
100%
0.7°
7
Windvlaag: 0.9 m/s
74%3 cm
15:00
Voelt als: 1.0°
1000.6 hPa 2.7 mm
100%
1.6°
7
Windvlaag: 0.6 m/s
80%3 cm
16:00
Voelt als: -0.5°
1001.3 hPa 2.7 mm
100%
0.7°
7
Windvlaag: 0.6 m/s
83%2 cm
17:00
Voelt als: -0.1°
1002.0 hPa 2.5 mm
98%
2.0°
7
Windvlaag: 1 m/s
58%2 cm
18:00
Voelt als: -0.6°
1002.9 hPa
38%
2.0°
6
Windvlaag: 0.9 m/s
78%2 cm
19:00
Voelt als: -0.7°
1003.7 hPa 3.6 mm
22%
1.7°
6
Windvlaag: 1 m/s
50%2 cm
20:00
Voelt als: -1.1°
1004.3 hPa 5.9 mm
21%
1.2°
5
Windvlaag: 2.4 m/s
37%2 cm
21:00
Voelt als: -1.3°
1004.9 hPa 5.7 mm
24%
0.8°
5
Windvlaag: 4.8 m/s
58%2 cm
22:00
Voelt als: -1.3°
1005.3 hPa
40%
0.5°
5
Windvlaag: 5.4 m/s
37%2 cm
23:00
Voelt als: -1.6°
1005.6 hPa
42%
0.1°
5
Windvlaag: 5.8 m/s
42%2 cm
 07:33     18:20    Daglengte: 10:47 Donderdag 27 Feb
00:00
Voelt als: -1.8°
1005.9 hPa
92%
-0.3°
5
Windvlaag: 6.7 m/s
41%2 cm
01:00
Voelt als: -1.8°
1006.3 hPa
87%
-0.5°
5
Windvlaag: 3.3 m/s
37%2 cm
02:00
Voelt als: -2.1°
1006.5 hPa
41%
-0.5°
5
Windvlaag: 11.1 m/s
17%2 cm
03:00
Voelt als: -2.6°
1006.6 hPa
65%
-0.7°
4
Windvlaag: 11 m/s
31%2 cm
04:00
Voelt als: -3.0°
1006.5 hPa
21%
-0.9°
4
Windvlaag: 10.4 m/s
31%2 cm
05:00
Voelt als: -3.5°
1006.5 hPa
21%
-1.1°
4
Windvlaag: 10.3 m/s
29%2 cm
Temp/Neerslag /Baro Onweer/DauwpuntSneeuw
    Temp Baro Neerslag Dauwpunt Wind BewolkingSneeuw  
 07:40     18:15    Daglengte: 10:35 Vandaag
07:00
Voelt als: 2.6°
1020.9 hPa 0.6 mm 2.4°
4
91%
10:00
Voelt als: 3.6°
1016.0 hPa 1.5 mm 5.4°
7
91%
13:00
12°
1011.9 hPa   9.5°
9
90%
16:00
12°
1008.6 hPa 1.1 mm 7.8°
10
91%
19:00
10°
1007.0 hPa 5.0 mm 8.2°
10
91%
22:00
10°
1005.5 hPa 1.2 mm 8.3°
9
91%
 07:38     18:17    Daglengte: 10:39 Morgen
01:00
10°
Voelt als: 6.5°
1005.2 hPa 1.1 mm 7.0°
8
89%
04:00
Voelt als: 4.0°
1004.2 hPa   4.2°
6
19%
07:00
Voelt als: 2.4°
1003.8 hPa   2.3°
6
25%
10:00
Voelt als: 2.8°
1003.5 hPa   1.3°
7
1%
13:00
Voelt als: 5.3°
1002.3 hPa   0.4°
7
16%
16:00
Voelt als: 3.5°
1000.0 hPa 2.6 mm 3.3°
7
76%
19:00
Voelt als: 1.9°
998.0 hPa 1.1 mm 3.0°
6
63%
22:00
Voelt als: -0.2°
995.6 hPa 2.0 mm 2.7°
8
93%
 07:35     18:19    Daglengte: 10:44 Woensdag 26 Feb
01:00
Voelt als: -1.5°
995.4 hPa 1.6 mm 0.2°
8
32%
04:00
Voelt als: -2.9°
995.1 hPa   -0.6°
7
38%
07:00
Voelt als: -3.1°
995.8 hPa   -0.6°
5
69%3 cm
10:00
Voelt als: -1.8°
998.1 hPa   -0.5°
7
63%4 cm
13:00
Voelt als: 0.9°
999.9 hPa 3.1 mm 0.9°
7
63%3 cm
16:00
Voelt als: -0.5°
1001.3 hPa 7.8 mm 0.7°
7
83%2 cm
19:00
Voelt als: -0.7°
1003.7 hPa 6.1 mm 1.7°
6
50%2 cm
22:00
Voelt als: -1.3°
1005.3 hPa 11.6 mm 0.5°
5
37%2 cm
 07:33     18:20    Daglengte: 10:47 Donderdag 27 Feb
01:00
Voelt als: -1.8°
1006.3 hPa   -0.5°
5
37%2 cm
04:00
Voelt als: -3.0°
1006.5 hPa   -0.9°
4
31%2 cm
07:00
Voelt als: -3.7°
1006.5 hPa   -1.1°
4
42%2 cm
10:00
Voelt als: 0.7°
1005.8 hPa 20.3 mm -0.6°
5
24%
13:00
Voelt als: 3.2°
1004.9 hPa 23.2 mm -0.7°
6
27%
16:00
Voelt als: 2.9°
1003.7 hPa 26.9 mm 1.7°
4
59%
19:00
Voelt als: 3.7°
1002.8 hPa 28.5 mm 3.6°
2
92%
22:00
Voelt als: 2.6°
1003.5 hPa 28.6 mm 3.3°
2
91%
 07:31     18:22    Daglengte: 10:51 Vrijdag 28 Feb
01:00
Voelt als: 1.5°
1004.2 hPa 28.8 mm 2.7°
2
91%
04:00
Voelt als: 0.0°
1004.6 hPa 28.9 mm 2.4°
3
91%
07:00
Voelt als: -0.9°
1004.9 hPa 28.9 mm 2.2°
5
92%
10:00
Voelt als: 0.9°
1003.2 hPa 28.9 mm 2.9°
5
92%
13:00
Voelt als: 2.8°
1001.3 hPa 28.9 mm 3.5°
5
92%
16:00
Voelt als: 3.7°
998.5 hPa 29.0 mm 4.8°
4
92%
19:00
Voelt als: 4.6°
995.3 hPa 31.8 mm 5.9°
3
92%
22:00
Voelt als: 4.0°
994.4 hPa 41.5 mm 5.9°
5
58%
 07:29     18:24    Daglengte: 10:55 Zaterdag 29 Feb
01:00
Voelt als: 3.6°
994.0 hPa 42.6 mm 5.7°
7
25%
04:00
Voelt als: 1.7°
991.4 hPa 42.7 mm 4.4°
7
58%
07:00
Voelt als: -0.0°
988.7 hPa 45.4 mm 3.4°
7
92%
10:00
Voelt als: 0.5°
990.0 hPa 45.9 mm 2.8°
8
89%
13:00
Voelt als: 1.4°
991.5 hPa 46.0 mm 2.2°
9
85%
16:00
Voelt als: 1.0°
991.9 hPa 46.0 mm 1.3°
7
88%
19:00
Voelt als: 0.1°
992.2 hPa 48.2 mm 0.6°
6
91%
22:00
Voelt als: -1.0°
991.8 hPa 50.3 mm 0.9°
6
89%
 07:27     18:26    Daglengte: 10:59 Zondag 01 Maa
01:00
Voelt als: -2.3°
991.4 hPa 53.8 mm 1.1°
7
87%
04:00
Voelt als: -2.2°
993.1 hPa 56.5 mm 1.1°
6
82%
07:00
Voelt als: -1.9°
994.9 hPa 57.5 mm 1.0°
5
77%
10:00
Voelt als: 0.7°
997.6 hPa 57.5 mm 2.1°
5
67%
13:00
Voelt als: 3.5°
1000.3 hPa 57.8 mm 3.3°
5
56%
16:00
Voelt als: 1.9°
1002.2 hPa 58.5 mm -0.1°
4
40%
19:00
Voelt als: 0.0°
1004.2 hPa 58.7 mm -3.6°
3
24%
22:00
Voelt als: -1.8°
1005.7 hPa 58.8 mm -2.3°
4
27%
 07:25     18:27    Daglengte: 11:02 Maandag 02 Maa
01:00
Voelt als: -3.4°
1007.1 hPa 58.8 mm -1.9°
4
30% warningclass
04:00
Voelt als: -3.2°
1007.7 hPa   -1.7°
3
36% warningclass
07:00
Voelt als: -2.8°
1008.3 hPa 117.7 mm -1.5°
3
42% warningclass
13:00
Voelt als: 5.0°
1007.7 hPa 117.7 mm 0.6°
4
43%
19:00
Voelt als: 2.4°
1005.4 hPa 118.2 mm 0.5°
3
77%
 07:23     18:29    Daglengte: 11:06 Dinsdag 03 Maa
01:00
Voelt als: -0.5°
1006.2 hPa 118.3 mm -0.3°
4
92%
07:00
Voelt als: -3.4°
1008.1 hPa 118.3 mm -3.2°
4
91% warningclass
13:00
Voelt als: 3.5°
1009.7 hPa 118.3 mm -2.1°
6
88%
19:00
Voelt als: 4.3°
1007.2 hPa 118.3 mm -0.8°
4
92%
 07:21     18:31    Daglengte: 11:10 Woensdag 04 Maa
01:00
Voelt als: 0.8°
1000.8 hPa 118.3 mm -2.3°
7
92%
07:00
Voelt als: -3.2°
993.8 hPa 118.3 mm 1.0°
7
92%
13:00
Voelt als: -6.3°
995.2 hPa 121.9 mm -0.1°
12
1% warningclass
19:00
Voelt als: -0.2°
987.7 hPa 128.1 mm 3.4°
6
1%
 07:18     18:32    Daglengte: 11:14 Donderdag 05 Maa
01:00
Voelt als: 0.9°
1006.1 hPa 1.6 mm 2.2°
7
69%
07:00
Voelt als: -0.0°
1007.8 hPa 1.3 mm 1.6°
6
57%
13:00
Voelt als: 4.9°
1009.8 hPa 0.7 mm 2.8°
7
60%
19:00
Voelt als: 3.3°
1010.2 hPa 0.8 mm 3.0°
5
64%
 07:16     18:34    Daglengte: 11:18 Vrijdag 06 Maa
01:00
Voelt als: 2.0°
1011.4 hPa 0.8 mm 3.2°
6
62%
07:00
Voelt als: 1.3°
1010.9 hPa 0.9 mm 3.1°
6
62%
13:00
Voelt als: 6.0°
1011.2 hPa 1.2 mm 4.4°
7
73%
19:00
Voelt als: 3.7°
1011.0 hPa 0.8 mm 3.6°
5
70%
 07:14     18:36    Daglengte: 11:22 Zaterdag 07 Maa
01:00
Voelt als: 2.6°
1011.3 hPa 0.7 mm 3.5°
5
59%
07:00
Voelt als: 1.8°
1010.5 hPa 0.7 mm 3.2°
5
64%
13:00
Voelt als: 6.5°
1010.8 hPa 0.7 mm 3.9°
5
74%
19:00
Voelt als: 4.7°
1011.1 hPa 0.8 mm 3.3°
4
70%
 07:12     18:37    Daglengte: 11:25 Zondag 08 Maa
01:00
Voelt als: 3.0°
1012.0 hPa 0.4 mm 3.0°
4
62%
07:00
Voelt als: 2.1°
1012.9 hPa 0.9 mm 2.4°
3
52%
13:00
Voelt als: 6.2°
1014.1 hPa 0.9 mm 2.8°
4
58%
19:00
Voelt als: 4.2°
1014.0 hPa 0.6 mm 2.1°
2
64%
 07:10     18:39    Daglengte: 11:29 Maandag 09 Maa
01:00
Voelt als: 1.8°
1014.5 hPa 0.6 mm 1.6°
2
44%
07:00
Voelt als: 1.1°
1014.3 hPa 0.5 mm 1.1°
2
46%
13:00
Voelt als: 6.6°
1014.4 hPa 0.4 mm 2.6°
3
50%
19:00
Voelt als: 4.4°
1013.9 hPa 0.7 mm 1.7°
2
62%
 07:07     18:41    Daglengte: 11:34 Dinsdag 10 Maa
01:00
Voelt als: 1.9°
1013.9 hPa 0.9 mm 1.6°
3
56%
  CAPE Lifted Index Hail Supercell Tornado SRH 3km CL BTM PRES CL TOP PRES Swiss DWD icon SMHI TS
 07:40     18:15    Daglengte: 10:35 Vandaag
06:00 0 J/kg 11.9 K 0 % 0 % 0 % 0 m²/s² 0 0 13.25 61
07:00 0 J/kg 9.5 K 0 % 0 % 0 % 0 m²/s² 0 0 11.21 61
08:00 0 J/kg 7.6 K 0 % 0 % 0 % 0 m²/s² 0 0 9.28 61
09:00 0 J/kg 6.3 K 0 % 0 % 0 % 0 m²/s² 0 0 9.09 61
10:00 0 J/kg 4.7 K 0 % 0 % 0 % 0 m²/s² 0 0 9.8 3
11:00 1 J/kg 6.1 K 0 % 0 % 0 % 0 m²/s² 0 0 11.35 3
12:00 6 J/kg 7.7 K 0 % 0 % 0 % 0 m²/s² 0 0 14.48 3
13:00 7 J/kg 7.8 K 0 % 0 % 0 % 0 m²/s² 0 0 14.79 3
14:00 10 J/kg 8.8 K 0 % 0 % 0 % 0 m²/s² 0 0 16.03 3
15:00 6 J/kg 9.3 K 0 % 0 % 0 % 0 m²/s² 0 0 16.53 3
16:00 10 J/kg 8.3 K 0 % 0 % 0 % 0 m²/s² 0 0 14.66 3
17:00 1 J/kg 7.0 K 0 % 0 % 0 % 0 m²/s² 0 0 10.21 61
18:00 0 J/kg 7.4 K 0 % 0 % 0 % 0 m²/s² 0 0 7.58 61
19:00 0 J/kg 6.6 K 0 % 0 % 0 % 0 m²/s² 0 0 6.81 61
20:00 0 J/kg 6.6 K 0 % 0 % 0 % 0 m²/s² 0 0 7.86 61
21:00 7 J/kg 6.5 K 0 % 0 % 0 % 0 m²/s² 0 0 9.92 3
22:00 22 J/kg 5.7 K 0 % 0 % 0 % 0 m²/s² 0 0 13.32 3
23:00 50 J/kg 5.4 K 0 % 0 % 0 % 0 m²/s² 0 0 15.27 3
 07:38     18:17    Daglengte: 10:39 Morgen
00:00 46 J/kg 6.6 K 0 % 0 % 0 % 0 m²/s² 0 0 15.99 3
01:00 20 J/kg 8.7 K 0 % 0 % 0 % 0 m²/s² 0 0 17.64 3
02:00 16 J/kg 9.5 K 0 % 0 % 0 % 0 m²/s² 0 0 18.02 3
03:00 6 J/kg 10.2 K 0 % 0 % 0 % 0 m²/s² 0 0 18.69 3
04:00 2 J/kg 10.6 K 0 % 0 % 0 % 0 m²/s² 0 0 18.7 61
05:00 0 J/kg 11.0 K 0 % 0 % 0 % 0 m²/s² 0 0 18.74 2
06:00 0 J/kg 11.2 K 0 % 0 % 0 % 0 m²/s² 0 0 18.34 1
07:00 2 J/kg 11.3 K 0 % 0 % 0 % 0 m²/s² 0 0 17.93 3
08:00 3 J/kg 10.7 K 0 % 0 % 0 % 0 m²/s² 0 0 16.31 3
09:00 16 J/kg 10.4 K 0 % 0 % 0 % 0 m²/s² 0 0 14.66 1
10:00 42 J/kg 10.0 K 0 % 0 % 0 % 0 m²/s² 0 0 12.85 1
11:00 21 J/kg 10.1 K 0 % 0 % 0 % 0 m²/s² 0 0 13.16 1
12:00 31 J/kg 8.9 K 0 % 0 % 0 % 0 m²/s² 0 0 11.81 2
13:00 71 J/kg 6.9 K 0 % 0 % 0 % 0 m²/s² 0 0 9 2
14:00 103 J/kg 4.7 K 0 % 0 % 0 % 0 m²/s² 0 0 6.44 2
15:00 149 J/kg 2.5 K 0 % 0 % 0 % 0 m²/s² 0 0 3.31 3
16:00 35 J/kg 1.0 K 0 % 0 % 0 % 0 m²/s² 0 0 1.54 80
17:00 0 J/kg 2.4 K 0 % 0 % 0 % 0 m²/s² 0 0 4.56 80
18:00 0 J/kg 1.1 K 0 % 0 % 0 % 0 m²/s² 0 0 3.2 2
19:00 62 J/kg 0.3 K 0 % 0 % 0 % 0 m²/s² 0 0 1.62 3
20:00 1 J/kg 1.2 K 0 % 0 % 0 % 0 m²/s² 0 0 1.65 3
21:00 47 J/kg -0.5 K 0 % 0 % 0 % 0 m²/s² 0 0 0.4 61
22:00 4 J/kg 0.1 K 0 % 0 % 0 % 0 m²/s² 0 0 1.18 80
23:00 99 J/kg 0.2 K 0 % 0 % 0 % 0 m²/s² 0 0 1.91 3
 07:35     18:19    Daglengte: 10:44 Woensdag 26 Feb
00:00 104 J/kg 0.2 K 0 % 0 % 0 % 0 m²/s² 0 0 1.85 2
01:00 32 J/kg 0.5 K 0 % 0 % 0 % 0 m²/s² 0 0 3.38 2
02:00 0 J/kg 1.2 K 0 % 0 % 0 % 0 m²/s² 0 0 4.29 2
03:00 0 J/kg 0.8 K 0 % 0 % 0 % 0 m²/s² 0 0 3.59 2
04:00 0 J/kg 0.4 K 0 % 0 % 0 % 0 m²/s² 0 0 1 2
05:00 0 J/kg 0.4 K 0 % 0 % 0 % 0 m²/s² 0 0 0.91 3
06:00 0 J/kg -0.3 K 0 % 0 % 0 % 0 m²/s² 0 0 0.18 2
07:00 1 J/kg -0.2 K 0 % 0 % 0 % 0 m²/s² 0 0 0.4 3
08:00 1 J/kg 0.6 K 0 % 0 % 0 % 0 m²/s² 0 0 1.2 3
09:00 24 J/kg -0.1 K 0 % 0 % 0 % 0 m²/s² 0 0 0.5 85
10:00 72 J/kg -0.5 K 0 % 0 % 0 % 0 m²/s² 0 0 1.45 85
11:00 171 J/kg -0.7 K 0 % 0 % 0 % 0 m²/s² 0 0 1.4 80
12:00 232 J/kg -1.0 K 0 % 0 % 0 % 0 m²/s² 0 0 0.98 80
13:00 343 J/kg -1.7 K 0 % 0 % 0 % 0 m²/s² 0 0 -0.17 2
14:00 344 J/kg -1.6 K 0 % 0 % 0 % 0 m²/s² 0 0 -0.43 1
15:00 273 J/kg -1.1 K 0 % 0 % 0 % 0 m²/s² 0 0 0.58 3
16:00 291 J/kg -1.5 K 0 % 0 % 0 % 0 m²/s² 0 0 0.48 80
17:00 259 J/kg -1.3 K 0 % 0 % 0 % 0 m²/s² 0 0 -0.01 2
18:00 224 J/kg -0.7 K 0 % 0 % 0 % 0 m²/s² 0 0 2.15 3
19:00 283 J/kg -0.5 K 0 % 0 % 0 % 0 m²/s² 0 0 1.87 1
20:00 235 J/kg 0.6 K 0 % 0 % 0 % 0 m²/s² 0 0 3.36 1
21:00 186 J/kg 1.8 K 0 % 0 % 0 % 0 m²/s² 0 0 3.66 2
22:00 138 J/kg 3.5 K 0 % 0 % 0 % 0 m²/s² 0 0 5.12 2
23:00 35 J/kg 5.4 K 0 % 0 % 0 % 0 m²/s² 0 0 7.56 3
 07:33     18:20    Daglengte: 10:47 Donderdag 27 Feb
00:00 0 J/kg 7.2 K 0 % 0 % 0 % 0 m²/s² 0 0 10.8 2
01:00 0 J/kg 7.9 K 0 % 0 % 0 % 0 m²/s² 0 0 11.17 2
02:00 0 J/kg 9.0 K 0 % 0 % 0 % 0 m²/s² 0 0 11.31 2
03:00 0 J/kg 10.3 K 0 % 0 % 0 % 0 m²/s² 0 0 12.82 2
04:00 0 J/kg 11.0 K 0 % 0 % 0 % 0 m²/s² 0 0 13.76 3
05:00 0 J/kg 11.3 K 0 % 0 % 0 % 0 m²/s² 0 0 14.24 2
Temp Baro Wind Neerslag
  EWN Forecast EWN WRFDA DWD ICON FMI HIRLAM MET Norway GFS
 07:40     18:15    Daglengte: 10:35 Vandaag
07:00 5.6° 1020.9 hPa 3.9 m/s 0.6 mm 5.6° 1019.0 hPa 3.9 m/s 0.2 mm 5.2° 1021.2 hPa 2.8 m/s -1.3 mm 6.4° 1021.2 hPa 4.2 m/s 0.0 mm 5.5° 1021.0 hPa 4.0 m/s 5.7° 1020.4 hPa 3.9 m/s
10:00 7.2° 1016.0 hPa 6.5 m/s 1.5 mm 8.1° 1014.2 hPa 8.0 m/s 4.4 mm 6.1° 1016.3 hPa 5.0 m/s 0.8 mm 7.3° 1016.4 hPa 6.5 m/s 0.0 mm 7.8° 1016.2 hPa 6.5 m/s 9.4° 1016.1 hPa 6.6 m/s
13:00 11.5° 1011.9 hPa 9.5 m/s 0.0 mm 12.4° 1010.4 hPa 12.1 m/s 6.1 mm 11.6° 1012.2 hPa 7.3 m/s 0.1 mm 11.2° 1011.7 hPa 9.9 m/s 0.0 mm 11.4° 1012.5 hPa 8.9 m/s 12.4° 1012.2 hPa 10.2 m/s
16:00 11.6° 1008.6 hPa 10.2 m/s 1.1 mm 11.9° 1006.7 hPa 10.8 m/s 6.1 mm 11.6° 1008.8 hPa 8.9 m/s 0.1 mm 12.4° 1008.6 hPa 10.7 m/s 0.0 mm 11.5° 1008.9 hPa 9.7 m/s 11.7° 1008.7 hPa 10.3 m/s
19:00 10.3° 1007.0 hPa 10.4 m/s 5.0 mm 10.3° 1005.3 hPa 12.1 m/s 9.4 mm 10.2° 1007.6 hPa 8.9 m/s 4.1 mm 10.5° 1007.1 hPa 11.3 m/s 0.0 mm 10.0° 1007.2 hPa 9.4 m/s 10.7° 1007.0 hPa 10.7 m/s
22:00 10.2° 1005.5 hPa 9.2 m/s 1.2 mm 10.2° 1003.8 hPa 10.2 m/s 14.4 mm 10.3° 1005.5 hPa 8.6 m/s 0.4 mm 10.3° 1005.2 hPa 9.1 m/s 0.0 mm 10.1° 1005.5 hPa 9.1 m/s 11.1° 1005.7 hPa 9.7 m/s
 07:38     18:17    Daglengte: 10:39 Morgen
01:00 9.8° 1005.2 hPa 7.7 m/s 1.1 mm 8.5° 1004.4 hPa 8.6 m/s 14.8 mm 9.7° 1005.6 hPa 6.5 m/s 0.2 mm 11.5° 1004.2 hPa 9.6 m/s 0.0 mm 9.9° 1005.2 hPa 7.0 m/s 9.0° 1005.9 hPa 7.6 m/s
04:00 7.6° 1004.2 hPa 6.4 m/s 0.0 mm 6.0° 1003.1 hPa 7.0 m/s 14.9 mm 7.9° 1004.2 hPa 4.5 m/s 0.3 mm 8.8° 1003.8 hPa 8.6 m/s 0.0 mm 7.6° 1004.1 hPa 6.2 m/s 7.3° 1005.0 hPa 7.5 m/s
07:00 6.3° 1003.8 hPa 6.5 m/s 0.0 mm 4.2° 1002.8 hPa 6.3 m/s 14.9 mm 6.7° 1003.9 hPa 6.3 m/s 0.0 mm 7.5° 1003.2 hPa 7.8 m/s 0.0 mm 5.9° 1003.8 hPa 5.9 m/s 6.0° 1005.1 hPa 6.6 m/s
10:00 6.7° 1003.5 hPa 7.0 m/s 0.0 mm 6.5° 1001.9 hPa 8.6 m/s 14.9 mm 6.8° 1004.1 hPa 6.9 m/s 0.0 mm 7.1° 1003.0 hPa 7.6 m/s 0.0 mm 6.8° 1003.4 hPa 5.9 m/s 6.9° 1004.2 hPa 7.1 m/s
13:00 8.8° 1002.3 hPa 7.2 m/s 0.0 mm 8.7° 1000.9 hPa 9.3 m/s 14.9 mm 8.6° 1003.7 hPa 8.0 m/s 0.0 mm 8.8° 1001.1 hPa 6.9 m/s 0.0 mm 9.1° 1002.2 hPa 6.1 m/s 9.0° 1003.1 hPa 7.9 m/s
16:00 7.4° 1000.0 hPa 7.3 m/s 2.6 mm 6.8° 998.0 hPa 11.8 m/s 15.7 mm 7.6° 1001.7 hPa 7.5 m/s 0.5 mm 8.3° 999.0 hPa 7.6 m/s 0.0 mm 6.2° 1000.1 hPa 6.9 m/s 8.2° 1000.3 hPa 8.1 m/s
19:00 5.8° 998.0 hPa 6.1 m/s 1.1 mm 4.8° 995.9 hPa 4.3 m/s 17.6 mm 5.9° 999.9 hPa 5.3 m/s 0.4 mm 6.6° 997.3 hPa 6.6 m/s 0.0 mm 5.4° 998.0 hPa 6.2 m/s 5.9° 998.4 hPa 6.4 m/s
22:00 4.7° 995.6 hPa 8.1 m/s 2.0 mm 4.8° 991.8 hPa 9.7 m/s 20.9 mm 5.0° 996.2 hPa 7.3 m/s 0.9 mm 4.1° 995.7 hPa 8.3 m/s 3.9° 994.9 hPa 9.4 m/s
 07:35     18:19    Daglengte: 10:44 Woensdag 26 Feb
01:00 3.6° 995.4 hPa 7.6 m/s 1.6 mm 3.6° 990.9 hPa 10.3 m/s 21.4 mm 4.1° 996.1 hPa 7.4 m/s 0.1 mm 3.0° 995.6 hPa 6.8 m/s 3.2° 993.9 hPa 8.4 m/s
04:00 2.2° 995.1 hPa 6.6 m/s 0.0 mm 2.0° 989.9 hPa 10.1 m/s 21.5 mm 3.1° 995.6 hPa 6.5 m/s 0.0 mm 1.9° 995.2 hPa 5.7 m/s 1.8° 993.2 hPa 9.3 m/s
07:00 1.6° 995.8 hPa 5.4 m/s 0.0 mm 1.1° 990.9 hPa 8.6 m/s 28.6 mm 2.1° 996.3 hPa 6.0 m/s 0.0 mm 1.5° 996.0 hPa 4.9 m/s 1.2° 994.4 hPa 7.5 m/s
10:00 3.2° 998.1 hPa 6.9 m/s 0.0 mm 4.0° 995.3 hPa 9.8 m/s 43.9 mm 3.1° 998.6 hPa 7.2 m/s 0.3 mm 3.1° 998.1 hPa 5.9 m/s 3.1° 998.3 hPa 6.9 m/s
13:00 5.4° 999.9 hPa 7.2 m/s 3.1 mm 5.4° 999.2 hPa 9.1 m/s 44.6 mm 5.8° 1000.4 hPa 7.5 m/s 0.6 mm 5.3° 999.8 hPa 6.8 m/s 5.0° 1002.6 hPa 7.8 m/s
16:00 4.3° 1001.3 hPa 7.2 m/s 7.8 mm 5.0° 1000.9 hPa 8.8 m/s 46.5 mm 5.0° 1001.2 hPa 6.4 m/s 0.7 mm 4.1° 1001.2 hPa 7.1 m/s 5.4° 1004.4 hPa 7.3 m/s
19:00 3.7° 1003.7 hPa 5.7 m/s 6.1 mm 4.4° 1003.1 hPa 6.2 m/s 49.8 mm 3.8° 1003.6 hPa 5.3 m/s 0.1 mm 3.1° 1003.6 hPa 5.8 m/s 2.8° 1006.9 hPa 4.9 m/s
22:00 3.0° 1005.3 hPa 5.2 m/s 11.6 mm 3.6° 1005.5 hPa 5.8 m/s 50.4 mm 3.1° 1005.2 hPa 4.7 m/s 0.0 mm 2.9° 1005.0 hPa 5.3 m/s 2.8° 1009.2 hPa 5.9 m/s
 07:33     18:20    Daglengte: 10:47 Donderdag 27 Feb
01:00 2.4° 1006.3 hPa 4.9 m/s 0.0 mm 1.2° 1006.9 hPa 5.0 m/s 50.6 mm 2.6° 1006.1 hPa 3.7 m/s 0.2 mm 2.6° 1006.3 hPa 4.8 m/s 1.1° 1010.7 hPa 3.9 m/s
04:00 1.2° 1006.5 hPa 4.3 m/s 0.0 mm 0.0° 1006.5 hPa 4.9 m/s 50.6 mm 2.4° 1006.6 hPa 4.2 m/s 0.0 mm 1.1° 1006.5 hPa 4.3 m/s 0.6° 1010.5 hPa 4.0 m/s
07:00 0.3° 1006.5 hPa 3.8 m/s 0.0 mm 1.0° 1005.3 hPa 4.9 m/s 50.6 mm 1.2° 1006.5 hPa 3.2 m/s 0.0 mm -0.4° 1006.7 hPa 3.8 m/s 1.0° 1009.8 hPa 5.3 m/s
10:00 4.5° 1005.8 hPa 5.0 m/s 20.3 mm 4.6° 1005.8 hPa 4.8 m/s 3.5° 1006.3 hPa 7.3 m/s 20.3 mm
13:00 6.7° 1004.9 hPa 5.6 m/s 23.2 mm 7.1° 1005.3 hPa 5.3 m/s 2.5° 1001.0 hPa 9.0 m/s 23.2 mm
16:00 5.6° 1003.7 hPa 3.5 m/s 26.9 mm 5.8° 1004.5 hPa 3.1 m/s 4.2° 995.2 hPa 7.9 m/s 26.9 mm
19:00 4.8° 1002.8 hPa 1.6 m/s 28.5 mm 4.4° 1003.7 hPa 1.0 m/s 9.4° 993.2 hPa 7.8 m/s 28.5 mm
22:00 4.2° 1003.5 hPa 1.8 m/s 28.6 mm 3.7° 1004.3 hPa 1.1 m/s 9.3° 994.2 hPa 9.5 m/s 28.6 mm
 07:31     18:22    Daglengte: 10:51 Vrijdag 28 Feb
01:00 3.4° 1004.2 hPa 2.0 m/s 28.8 mm 3.0° 1004.9 hPa 1.3 m/s 7.6° 996.9 hPa 9.4 m/s 28.8 mm
04:00 3.1° 1004.6 hPa 3.3 m/s 28.9 mm 3.0° 1005.0 hPa 2.9 m/s 4.6° 1000.3 hPa 8.1 m/s 28.9 mm
07:00 3.0° 1004.9 hPa 4.6 m/s 28.9 mm 3.0° 1005.0 hPa 4.5 m/s 3.3° 1003.7 hPa 6.2 m/s 28.9 mm
10:00 4.7° 1003.2 hPa 5.2 m/s 28.9 mm 4.6° 1002.9 hPa 5.0 m/s 5.6° 1006.3 hPa 7.0 m/s 28.9 mm
13:00 6.3° 1001.3 hPa 5.5 m/s 28.9 mm 6.2° 1000.8 hPa 5.5 m/s 7.8° 1006.4 hPa 5.0 m/s 28.9 mm
16:00 6.5° 998.5 hPa 4.1 m/s 29.0 mm 6.5° 998.0 hPa 4.2 m/s 7.4° 1004.0 hPa 3.5 m/s 29.0 mm
19:00 6.7° 995.3 hPa 2.9 m/s 31.8 mm 6.7° 995.1 hPa 2.8 m/s 6.2° 998.0 hPa 4.3 m/s 31.8 mm
22:00 7.0° 994.4 hPa 4.6 m/s 41.5 mm 7.0° 994.8 hPa 4.5 m/s 7.7° 989.8 hPa 5.4 m/s 41.5 mm
 07:29     18:24    Daglengte: 10:55 Zaterdag 29 Feb
01:00 7.4° 994.0 hPa 6.8 m/s 42.6 mm 7.2° 994.5 hPa 6.3 m/s 9.1° 988.1 hPa 12.2 m/s 42.6 mm
04:00 5.9° 991.4 hPa 6.9 m/s 42.7 mm 5.9° 991.5 hPa 6.8 m/s 5.9° 989.8 hPa 7.2 m/s 42.7 mm
07:00 4.6° 988.7 hPa 7.2 m/s 45.4 mm 4.6° 988.6 hPa 7.4 m/s 5.1° 989.7 hPa 5.1 m/s 45.4 mm
10:00 5.3° 990.0 hPa 8.2 m/s 45.9 mm 5.3° 989.9 hPa 7.8 m/s 5.6° 992.2 hPa 12.6 m/s 45.9 mm
13:00 6.1° 991.5 hPa 8.5 m/s 46.0 mm 6.0° 991.1 hPa 8.2 m/s 6.8° 996.1 hPa 12.3 m/s 46.0 mm
16:00 5.5° 991.9 hPa 7.4 m/s 46.0 mm 5.2° 991.5 hPa 7.3 m/s 7.8° 997.3 hPa 7.9 m/s 46.0 mm
19:00 4.5° 992.2 hPa 6.3 m/s 48.2 mm 4.5° 991.8 hPa 6.5 m/s 4.0° 996.2 hPa 4.2 m/s 48.2 mm
22:00 3.6° 991.8 hPa 6.4 m/s 50.3 mm 3.5° 991.8 hPa 6.7 m/s 4.3° 991.5 hPa 3.9 m/s 50.3 mm
 07:27     18:26    Daglengte: 10:59 Zondag 01 Maa
01:00 2.7° 991.4 hPa 6.5 m/s 53.8 mm 2.6° 991.8 hPa 6.8 m/s 3.6° 986.5 hPa 3.4 m/s 53.8 mm
04:00 2.5° 993.1 hPa 6.0 m/s 56.5 mm 2.5° 993.5 hPa 6.0 m/s 3.0° 988.1 hPa 5.8 m/s 56.5 mm
07:00 2.5° 994.9 hPa 5.2 m/s 57.5 mm 2.4° 995.2 hPa 5.2 m/s 3.4° 991.1 hPa 5.6 m/s 57.5 mm
10:00 4.5° 997.6 hPa 5.1 m/s 57.5 mm 4.6° 998.0 hPa 5.0 m/s 4.5° 993.9 hPa 7.1 m/s 57.5 mm
13:00 6.7° 1000.3 hPa 4.8 m/s 57.8 mm 6.7° 1000.7 hPa 4.7 m/s 6.4° 995.5 hPa 6.0 m/s 57.8 mm
16:00 5.1° 1002.2 hPa 4.1 m/s 58.5 mm 5.0° 1002.7 hPa 4.1 m/s 6.3° 996.5 hPa 4.6 m/s 58.5 mm
19:00 3.2° 1004.2 hPa 3.4 m/s 58.7 mm 3.2° 1004.7 hPa 3.5 m/s 2.9° 999.0 hPa 2.5 m/s 58.7 mm
22:00 1.9° 1005.7 hPa 3.7 m/s 58.8 mm 1.9° 1006.0 hPa 3.6 m/s 1.7° 1001.8 hPa 4.4 m/s 58.8 mm
 07:25     18:27    Daglengte: 11:02 Maandag 02 Maa
01:00 0.7° 1007.1 hPa 3.9 m/s 58.8 mm 0.6° 1007.4 hPa 3.8 m/s 1.5° 1004.1 hPa 4.5 m/s 58.8 mm
04:00 0.4° 1007.7 hPa 3.2 m/s 58.8 mm 0.5° 1007.8 hPa 3.2 m/s -0.5° 1006.4 hPa 2.5 m/s 58.8 mm
07:00 0.3° 1008.3 hPa 2.6 m/s 58.8 mm 0.4° 1008.3 hPa 2.7 m/s -0.9° 1008.4 hPa 2.0 m/s 58.8 mm
13:00 7.5° 1007.7 hPa 4.0 m/s 58.9 mm 7.8° 1007.5 hPa 4.1 m/s 4.7° 1010.2 hPa 2.5 m/s 58.9 mm
19:00 5.1° 1005.4 hPa 3.2 m/s 59.2 mm 5.4° 1005.0 hPa 3.1 m/s 1.5° 1010.0 hPa 4.5 m/s 59.2 mm
 07:23     18:29    Daglengte: 11:06 Dinsdag 03 Maa
01:00 3.0° 1006.2 hPa 3.8 m/s 59.2 mm 3.4° 1005.9 hPa 3.7 m/s -1.2° 1009.7 hPa 5.3 m/s 59.2 mm
07:00 0.7° 1008.1 hPa 4.1 m/s 59.2 mm 0.9° 1007.9 hPa 3.9 m/s -1.1° 1010.1 hPa 6.0 m/s 59.2 mm
13:00 7.0° 1009.7 hPa 5.8 m/s 59.2 mm 7.3° 1009.3 hPa 5.7 m/s 3.9° 1013.6 hPa 6.5 m/s 59.2 mm
19:00 7.0° 1007.2 hPa 4.0 m/s 59.2 mm 7.6° 1006.4 hPa 4.0 m/s 0.0° 1015.9 hPa 3.8 m/s 59.2 mm
 07:21     18:31    Daglengte: 11:10 Woensdag 04 Maa
01:00 5.2° 1000.8 hPa 6.8 m/s 59.2 mm 5.8° 999.5 hPa 7.1 m/s -1.7° 1015.4 hPa 2.9 m/s 59.2 mm
07:00 2.0° 993.8 hPa 6.5 m/s 59.2 mm 2.1° 992.6 hPa 6.4 m/s 0.8° 1007.5 hPa 7.8 m/s 59.2 mm
13:00 1.0° 995.2 hPa 11.9 m/s 62.1 mm 1.0° 995.2 hPa 11.9 m/s 62.1 mm
19:00 4.3° 987.7 hPa 6.5 m/s 64.2 mm 4.3° 987.7 hPa 6.5 m/s 64.2 mm
 07:18     18:32    Daglengte: 11:14 Donderdag 05 Maa
01:00 5.2° 1006.1 hPa 6.7 m/s 1.6 mm
07:00 4.4° 1007.8 hPa 6.2 m/s 1.3 mm
13:00 8.5° 1009.8 hPa 7.5 m/s 0.7 mm
19:00 6.8° 1010.2 hPa 5.5 m/s 0.8 mm
 07:16     18:34    Daglengte: 11:18 Vrijdag 06 Maa
01:00 5.9° 1011.4 hPa 5.9 m/s 0.8 mm
07:00 5.3° 1010.9 hPa 5.7 m/s 0.9 mm
13:00 9.4° 1011.2 hPa 7.3 m/s 1.2 mm
19:00 7.0° 1011.0 hPa 5.2 m/s 0.8 mm
 07:14     18:36    Daglengte: 11:22 Zaterdag 07 Maa
01:00 6.1° 1011.3 hPa 5.1 m/s 0.7 mm
07:00 5.4° 1010.5 hPa 5.1 m/s 0.7 mm
13:00 9.3° 1010.8 hPa 5.5 m/s 0.7 mm
19:00 7.2° 1011.1 hPa 3.7 m/s 0.8 mm
 07:12     18:37    Daglengte: 11:25 Zondag 08 Maa
01:00 5.8° 1012.0 hPa 3.8 m/s 0.4 mm
07:00 4.6° 1012.9 hPa 2.8 m/s 0.9 mm
13:00 8.3° 1014.1 hPa 3.5 m/s 0.9 mm
19:00 6.0° 1014.0 hPa 2.3 m/s 0.6 mm
 07:10     18:39    Daglengte: 11:29 Maandag 09 Maa
01:00 3.8° 1014.5 hPa 2.2 m/s 0.6 mm
07:00 3.1° 1014.3 hPa 2.0 m/s 0.5 mm
13:00 8.3° 1014.4 hPa 2.8 m/s 0.4 mm
19:00 6.0° 1013.9 hPa 2.1 m/s 0.7 mm
 07:07     18:41    Daglengte: 11:34 Dinsdag 10 Maa
01:00 4.3° 1013.9 hPa 2.7 m/s 0.9 mm
FMI Hirlam - 7.5 km EWN WRFDA - 12 km DWD ICON - 7 km GFS - 25 km Basiskaart






























































Updatetijd (Europe/Brussels) Resolutie Lengte Stap
FMI Hirlam 00:45, 06:45, 12:45, 18:45 7.5 km 49h 1h
EWN WRFDA 02:15, 08:15, 14:15, 20:15 12 km 73h 1h
DWD ICON 04:45, 10:45, 16:45, 22:45 7 km 75h 1h
GFS 00:45, 06:45, 12:45, 18:45 25 km 237h 3h
30+ mm
25-30 mm
20-25 mm
15-20 mm
10-15 mm
6-10 mm
4-6 mm
2-4 mm
1-2 mm
0.5-1 mm
0.2-0.5 mm
0.1-0.2 mm
30+ mm
25-30 mm
20-25 mm
15-20 mm
10-15 mm
6-10 mm
4-6 mm
2-4 mm
1-2 mm
0.5-1 mm
0.2-0.5 mm
0.1-0.2 mm
Sneeuwval
Natte sneeuw
Hagel
Vorst
30+ mm
25-30 mm
20-25 mm
15-20 mm
10-15 mm
6-10 mm
4-6 mm
2-4 mm
1-2 mm
0.5-1 mm
0.2-0.5 mm
0.1-0.2 mm
Sneeuwval
Natte sneeuw
Hagel
Vorst
Onweer
50 mm
40 mm
30 mm
26 mm
22 mm
18 mm
14 mm
10 mm
9 mm
8 mm
7 mm
6 mm
5 mm
4.5 mm
4 mm
3.5 mm
3 mm
2.5 mm
2 mm
1.5 mm
1 mm
0.8 mm
0.6 mm
0.4 mm
0.2 mm
0.05 mm
35°
30°
25°
20°
15°
10°
-5°
-10°
-15°
-20°
-25°
-30°
-35°
33> m/s
29 m/s
25 m/s
21 m/s
17 m/s
14 m/s
11 m/s
8 m/s
5 m/s
3 m/s
0 m/s
2600 J/kg
2400 J/kg
2200 J/kg
2000 J/kg
1800 J/kg
1600 J/kg
1400 J/kg
1200 J/kg
1000 J/kg
800 J/kg
600 J/kg
400 J/kg
200 J/kg
70 dBZ
65 dBZ
60 dBZ
55 dBZ
50 dBZ
45 dBZ
40 dBZ
35 dBZ
30 dBZ
25 dBZ
20 dBZ
15 dBZ
10 dBZ
5 dBZ
-1 K
-2 K
-3 K
-4 K
-5 K
-6 K
-7 K
-8 K
-9 K
950 m²/s²
900 m²/s²
850 m²/s²
800 m²/s²
750 m²/s²
700 m²/s²
650 m²/s²
600 m²/s²
550 m²/s²
500 m²/s²
450 m²/s²
400 m²/s²
350 m²/s²
300 m²/s²
250 m²/s²
200 m²/s²
150 m²/s²
100 m²/s²
46 m/s
44 m/s
42 m/s
40 m/s
38 m/s
36 m/s
34 m/s
32 m/s
30 m/s
28 m/s
26 m/s
24 m/s
22 m/s
20 m/s
16 m/s
12 m/s
8 m/s
4 m/s
30 m/s
28 m/s
26 m/s
24 m/s
22 m/s
20 m/s
18 m/s
16 m/s
14 m/s
12 m/s
10 m/s
8 m/s
6 m/s
4 m/s
2 m/s
3.0
2.8
2.6
2.4
2.2
2.0
1.8
1.6
1.4
1.2
1.0
0.8
0.6
0.4
0.2
15
14
13
12
11
10
9
8
7
6
5
4
3
2
1
90%
80%
70%
60%
50%
40%
30%
20%
10%
42
40
38
36
34
32
30
28
26
24
22
20
18
16
14
12
90+ cm
80-90 cm
70-80 cm
60-70 cm
50-60 cm
40-50 cm
30-40 cm
20-30 cm
10-20 cm
1-10 cm
Sneeuwval
Natte sneeuw
Regen
>120 mm
115 mm
110 mm
105 mm
100 mm
95 mm
90 mm
85 mm
80 mm
75 mm
70 mm
65 mm
60 mm
55 mm
50 mm
45 mm
45 mm
40 mm
35 mm
30 mm
25 mm
20 mm
15 mm
10 mm
5 mm
0.1 mm
960 hPa
880 hPa
800 hPa
720 hPa
640 hPa
560 hPa
584 gpdm
568 gpdm
552 gpdm
536 gpdm
520 gpdm
504 gpdm
488 gpdm
Extreem zwaar Noodweer Kans op onweer
15% 15% 5% 50% 15%

Dag




Kaart






35°
30°
25°
20°
15°
10°
-5°
-10°
-15°
-20°
-25°
-30°
-35°
33> m/s
29 m/s
25 m/s
21 m/s
17 m/s
14 m/s
11 m/s
8 m/s
5 m/s
3 m/s
0 m/s
Extreem zwaar Noodweer Kans op onweer
15% 15% 5% 50% 15%
>120 mm
115 mm
110 mm
105 mm
100 mm
95 mm
90 mm
85 mm
80 mm
75 mm
70 mm
65 mm
60 mm
55 mm
50 mm
45 mm
45 mm
40 mm
35 mm
30 mm
25 mm
20 mm
15 mm
10 mm
5 mm
0.1 mm
Onweer risico kaarten - De groene en gele kleur geeft de kans op onweer aan binnen 40 km van een punt. Oranje, rood en violet hebben hetzelfde niveau zoals je het ziet op estofex.org waaronder ook de kans op hagel en supercells.

dBZ - dBZ staat voor decibel ten opzichte van Z.

Cape - Convective available potential energy (CAPE), is de totale hoeveelheid energie die een luchtpakketje nodig heeft om zover mogelijk te stijgen in de atmosfeer.

K Index - K-Index wordt berekend door de Vertical Totals (VT) en het verschil tussen de 850 hPa temperatuur en de 700 hPa dauwpuntsdepressie (Tdd 700) bij elkaar op te tellen.

TT Index - Convectie index wordt gebruikt voor het voorspellen van zware buien of onweer.

WRF - The Weather Research and Forecasting (WRF) is een volgende generatie mesoscale numeriek weersvoorspelling systeem ontworpen om zowel de operationele planning als het atmosferisch onderzoek te dienen. WRF is a cooperatie tussen het National Center for Atmospheric Research (NCAR), National Centers for Environmental Prediction (NCEP), Forecast Systems Laboratory (FSL), Air Force Weather Agency (AFWA), Naval Research Laboratory, University of Oklahoma, en de Federal Aviation Administration (FAA). Deze software draait op onze server.

WRFDA - Een meer geavanceerde versie van WRF

Arome - Het 2.5 km Arome model. Verzorgd door het Noors Meteorologisch Instituut.

MET Norway - De proff-default 4km meteorological data is een beste keus selectie van meteorologische modellen gebruikt door met.no die zijn geïnterpoleerd tot een gemeenschappelijke dataset. Verzorgd door het Noorse Meteorologisch Instituut.

SMHI - Het Hirlam model verzorgd door het Zweeds meteorologisch instituut.

FMI - Het Hirlam model verzorgd door het Fins meteorologisch instituut. Dekking alleen Finland.

GFS - Het Global Forecast Systeem (GFS) is een wereldwijd numerieke weersvoorspelling computermodel, gerund door NOAA.

GEM-GDPS - Het GEM-GDPS is a wereldwijd numeriek weersvoorspelling computermodel verzorgd door het Canadees Meteorologisch Centrum.

Credits/Info: Dank aan Stefan Gofferje van sääkeskus.fi voor enkele formules van GrADS. Info: Wikipedia.

Betrouwbaarheid van de verwachting

NB! 2015-03-29: Rebuilding the accuracy-test!

EWNACC
Day 1 Good forecasts

Dag 1 Tmax

Dag 2 Tmax

Geladen verwachtingen TOP 50

Totaal geladen verwachtingen:
Plaats Latitude Longitude Verwachtingen Plaats Latitude Longitude Verwachtingen